Regional Weather Roundup
Issued by NWS

Home | Current Version | Previous Version | Graphics & Text | Print | Product List | Glossary On
Versions: 1 2 3 4 5 6 7 8 9 10 11 12 13 14 15 16 17 18 19 20 21 22 23 24 25 26 27 28 29 30 31 32 33 34 35 36 37 38 39 40 41 42 43 44 45 46 47 48 49 50
000
ASUS43 KFSD 241610
RWRSD

WEATHER ROUNDUP FOR SOUTH DAKOTA
NATIONAL WEATHER SERVICE SIOUX FALLS SD
1100 AM CDT SAT JUN 24 2017

NOTE: "FAIR" INDICATES FEW OR NO CLOUDS BELOW 12,000 FEET WITH NO
SIGNIFICANT WEATHER AND/OR OBSTRUCTIONS TO VISIBILITY.


SDZ001>005-009-010-012>017-241700-
NORTHWEST AND NORTH CENTRAL SOUTH DAKOTA

CITY           SKY/WX    TMP DP  RH WIND       PRES   REMARKS
BUFFALO          N/A     62  36  37 N15       30.21S
FAITH            N/A     63  37  38 N21G28    30.23S
MOBRIDGE       SUNNY     64  33  31 NW25G32   30.14S
$$

SDZ012>016-024>037-041>051-057-063-072>074-241700-
SOUTHWEST AND SOUTH CENTRAL SOUTH DAKOTA

CITY           SKY/WX    TMP DP  RH WIND       PRES   REMARKS
RAPID CTY ARPT MOSUNNY   69  33  26 NW21G29   30.27S
PIERRE         SUNNY     64  39  39 NW17G25   30.20R
CUSTER         CLOUDY    54  29  38 NW8       30.34S
ELLSWORTH AFB  MOSUNNY   68  33  27 NW20G29   30.27
PHILIP         SUNNY     71  33  24 NW24      30.21F
PINE RIDGE     CLOUDY    63  37  38 NW7       30.30R
SPEARFISH      FAIR      64  34  32 NW17G25   30.31S
WINNER         FAIR      73  33  23 NW17G29   30.20S
$$

SDZ004>011-016>023-039-040-241700-
NORTHEAST SOUTH DAKOTA

CITY           SKY/WX    TMP DP  RH WIND       PRES   REMARKS
ABERDEEN       MOSUNNY   61  39  44 NW23G31   30.13R
WATERTOWN      MOSUNNY   59  41  51 NW18G24   30.08R
BROOKINGS      MOSUNNY   61  43  51 NW21      30.09R
SISSETON         N/A     60  42  51 NW21G29   30.06R
$$

SDZ017-020-022-023-036>040-048>070-241700-
SOUTHEAST SOUTH DAKOTA

CITY           SKY/WX    TMP DP  RH WIND       PRES   REMARKS
SIOUX FALLS    MOSUNNY   69  44  40 W15G26    30.09F
HURON          SUNNY     66  41  40 NW21G29   30.13R
CHAMBERLAIN    SUNNY     69  40  34 NW18G25   30.18R
MITCHELL       SUNNY     71  38  29 NW24G32   30.13S
YANKTON        SUNNY     72  39  30 W24G30    30.14S
$$

ABBREVIATIONS USED IN REMARKS
   TC - TEMPERATURE IN CELSIUS
  WCI - WIND CHILL INDEX
   HX - HEAT INDEX
  VSB - VISIBILITY




USA.gov is the U.S. government's official web portal to all federal, state and local government web resources and services.